Wind_Speed
19 20 21 19 18 16 14 14 13 10 9 10 14 19 22 30 39 45 49 56 60 71 81 83 85 88 92 93 97 100 102 101 101 99 98 97 96 93 93 94 95 95 92 89
24 25 24 22 19 16 14 14 13 12 7 3 6 11 13 21 29 33 36 42 53 65 76 82 87 90 93 98 100 102 103 106 106 105 102 101 100 98 95 94 97 97 95 92
23 24 25 28 27 29 27 23 19 17 13 9 4 4 8 12 18 24 28 32 32 39 56 70 83 90 93 97 99 103 104 106 108 108 107 105 106 105 103 101 101 99 97 95
21 24 30 34 37 35 35 33 30 27 25 20 13 10 7 9 12 17 22 27 31 38 47 61 73 82 87 92 96 98 101 103 104 107 108 111 111 109 109 109 108 106 104 102
19 24 30 33 36 37 37 38 39 36 32 28 23 17 12 10 10 10 13 14 18 25 34 45 54 67 82 94 99 101 104 109 113 116 117 116 116 114 113 112 112 110 109 107
21 27 30 31 32 34 36 37 38 34 35 35 35 30 24 19 15 11 9 10 14 17 22 30 40 49 58 69 83 94 103 108 112 115 117 118 118 118 115 113 114 113 111 110
22 29 27 29 33 30 31 32 35 33 32 33 31 31 28 27 25 21 18 13 11 7 6 12 20 28 37 49 60 72 82 92 101 106 109 112 114 114 114 116 118 115 114 113
20 22 23 23 25 27 25 24 25 28 24 25 24 23 21 22 21 20 19 18 17 14 10 9 4 10 18 28 38 47 58 64 73 84 91 97 104 110 112 113 114 114 112 112
18 15 14 14 13 15 15 19 15 17 20 21 20 17 16 14 14 13 11 12 12 10 10 9 6 10 6 9 17 24 28 34 45 53 60 69 78 86 91 97 106 112 117 116
14 11 9 7 5 7 6 4 7 9 8 9 10 12 12 11 8 3 4 5 7 7 6 5 7 10 10 10 10 19 24 28 31 33 39 43 51 59 66 74 81 88 97 103
42 40 41 39 37 34 32 27 23 15 6 3 6 7 9 5 3 5 2 0 3 3 3 5 7 10 11 11 10 11 12 29 30 27 27 29 34 40 45 50 57 63 70 76
46 47 48 48 47 46 45 44 43 40 37 35 30 21 15 12 11 12 12 12 11 10 8 6 5 6 7 9 13 13 15 13 9 11 12 14 18 23 28 33 39 47 53 56
46 44 43 42 43 44 43 42 42 43 44 45 44 41 39 36 35 33 31 30 27 25 23 18 14 9 6 6 7 10 12 13 15 16 15 14 13 12 17 20 24 30 38 45
42 41 41 42 41 40 39 39 38 39 38 38 38 37 35 34 33 32 31 31 31 31 30 28 25 24 22 20 17 12 9 9 10 11 13 15 15 16 18 20 21 24 29 36
35 34 33 33 34 33 32 33 35 34 34 33 33 33 33 32 31 30 28 29 30 30 30 30 31 31 29 27 25 22 19 18 15 12 10 10 11 13 16 20 24 28 32 36
28 28 29 30 30 30 31 31 32 30 30 31 31 31 30 29 29 27 26 26 26 25 27 26 25 23 24 25 25 24 23 23 23 23 22 20 19 17 17 17 19 21 24 26
24 23 23 24 28 30 29 28 25 23 24 24 25 28 30 30 29 27 25 25 24 23 22 21 22 19 18 17 16 18 19 15 13 15 16 19 22 24 25 26 27 28 30 32
18 18 16 16 19 23 23 23 24 24 25 23 24 24 25 24 24 24 23 23 23 22 21 20 19 18 16 15 15 14 8 8 10 11 11 11 12 12 14 21 26 28 32 35
14 14 14 12 16 19 20 21 21 20 19 19 19 21 22 23 23 23 22 19 19 20 21 20 20 21 20 18 19 18 16 15 16 20 20 13 14 12 13 23 21 20 21 24
17 15 14 14 15 17 21 21 22 23 24 25 25 26 26 28 28 27 26 25 23 20 19 20 19 17 19 20 20 20 20 24 29 33 36 32 31 33 34 35 35 37 41 44
15 18 17 16 18 19 21 23 26 26 25 23 24 27 29 27 26 25 25 26 26 24 21 19 18 16 16 17 17 19 23 22 26 33 40 38 38 42 43 44 45 44 45 47
14 18 16 15 16 17 19 21 22 23 24 24 26 26 29 30 30 32 32 32 32 30 27 23 20 19 18 20 21 21 27 32 36 39 41 43 45 45 46 46 48 49 49 49
17 17 15 13 14 16 16 17 18 21 22 23 22 24 26 30 32 33 34 35 36 34 35 33 32 33 35 36 37 38 40 41 42 41 41 42 45 46 47 50 54 58 60 60
18 17 17 15 16 20 21 20 18 24 25 24 24 26 26 27 29 31 33 33 33 34 36 38 39 40 42 43 44 45 45 44 44 46 46 46 49 52 54 55 56 59 62 65
20 20 19 19 22 23 20 19 21 24 27 26 28 29 28 29 29 30 32 33 35 36 37 39 40 42 42 42 45 46 47 48 48 49 51 52 53 55 58 60 60 63 65 66
26 27 25 24 24 23 22 19 22 25 27 26 26 29 30 31 30 32 31 32 34 35 36 38 41 42 44 45 46 48 49 49 50 52 54 55 56 59 60 61 63 65 68 70
29 28 24 25 28 25 25 29 31 28 25 27 29 30 33 34 35 35 35 36 38 38 37 37 39 40 43 46 48 49 50 52 53 54 55 57 59 61 62 63 65 67 70 74
Wind_Direction
359 2 355 355 349 347 348 350 345 337 288 259 235 229 228 228 228 229 229 228 222 221 222 222 219 220 221 222 224 226 227 229 230 232 233 233 233 234 233 234 235 238 239 241
29 31 27 30 24 22 22 20 15 17 6 334 233 207 211 222 222 225 224 223 221 218 220 220 220 221 222 224 225 227 228 230 231 233 235 237 238 239 239 239 241 242 243 245
39 37 35 38 42 43 42 43 41 44 43 45 74 160 167 196 211 213 209 209 218 221 223 224 223 224 223 226 227 229 229 232 234 234 235 236 238 242 243 243 244 245 245 247
34 41 41 42 45 45 47 50 50 52 57 58 68 82 129 170 196 204 207 201 197 202 211 218 223 228 229 229 231 233 235 237 239 241 241 240 239 240 242 244 246 247 247 248
25 35 45 42 45 45 46 49 50 51 55 63 74 85 99 126 145 167 189 189 211 212 211 217 222 225 226 227 229 231 232 234 235 237 239 241 242 242 241 243 245 247 247 248
31 36 41 45 45 46 49 48 50 53 59 62 60 61 68 68 75 106 141 163 187 202 214 218 220 221 226 231 233 234 236 237 238 240 242 243 244 245 245 244 244 244 247 249
44 41 44 45 42 43 43 39 43 51 57 56 58 62 69 72 75 76 78 81 93 116 188 221 223 224 227 231 234 237 240 243 245 246 247 247 248 249 249 249 249 249 249 248
56 53 40 41 41 38 40 43 47 47 53 62 60 60 63 70 56 60 82 83 85 82 92 111 173 224 234 231 231 235 239 243 247 251 251 248 249 250 251 252 252 253 253 253
73 53 48 40 38 39 39 38 41 56 64 68 61 60 64 67 77 62 51 45 52 62 75 64 39 42 343 294 279 277 266 249 242 244 245 247 249 251 252 250 250 253 254 255
54 51 55 60 70 52 20 52 75 95 83 80 90 100 95 92 91 90 18 22 15 15 359 355 4 357 355 355 311 258 265 273 272 256 250 250 250 249 249 249 250 249 251 255
66 69 69 68 68 66 65 61 60 57 36 182 147 152 153 148 115 121 146 191 308 299 289 288 304 315 322 330 340 3 251 246 253 263 264 256 249 249 249 251 251 250 250 253
61 61 65 66 66 65 65 64 65 66 68 72 77 84 89 83 74 61 50 37 21 10 6 355 335 320 314 316 332 342 345 350 345 263 249 252 255 255 253 252 250 250 249 250
55 53 56 57 58 59 60 59 60 60 62 64 68 70 70 70 70 68 67 65 61 58 55 54 48 32 352 326 316 319 327 337 340 340 340 336 318 312 275 269 266 262 257 254
53 51 47 48 50 50 51 52 52 55 57 57 58 59 60 61 61 64 65 65 64 60 59 59 60 61 57 55 49 33 12 347 324 315 310 308 309 305 300 295 287 276 267 265
50 51 52 52 52 52 54 56 57 59 59 58 56 55 53 52 49 49 50 48 47 50 49 47 45 44 43 45 46 44 44 42 36 25 9 347 323 307 295 287 281 279 277 275
34 34 38 39 42 45 46 45 46 50 52 54 55 55 53 52 52 48 47 45 43 40 36 36 38 41 42 42 40 35 28 21 15 7 3 0 355 348 339 329 317 308 300 294
27 29 27 31 39 37 39 43 41 40 44 45 44 45 44 44 42 42 45 46 42 39 37 36 36 29 23 28 34 39 40 32 17 351 341 335 335 333 329 326 323 321 316 313
20 26 32 36 31 30 30 31 34 36 36 35 36 41 43 48 47 41 35 29 27 28 28 24 18 16 17 11 6 8 8 12 16 7 7 343 323 325 322 313 307 306 305 306
24 24 26 24 28 29 28 30 31 32 29 27 25 25 25 24 21 16 15 18 16 12 13 14 16 12 9 5 3 360 7 14 29 32 28 39 39 20 22 30 12 3 0 2
22 20 18 18 25 24 19 19 19 18 19 20 23 22 18 15 12 8 6 3 2 1 3 3 2 8 8 6 4 360 13 19 23 30 27 29 28 22 18 7 8 7 359 358
5 13 14 14 17 17 16 18 21 23 22 24 27 28 27 23 14 10 9 7 6 7 2 357 353 359 6 13 17 20 27 26 25 23 24 20 19 17 14 7 2 357 351 351
350 357 360 1 0 6 8 10 13 17 18 22 21 16 14 19 24 25 24 21 19 18 14 11 9 10 19 23 23 33 32 32 25 22 21 17 13 10 9 8 5 3 356 354
326 335 338 344 344 352 3 359 359 2 5 8 11 10 14 12 16 16 14 18 21 20 19 25 30 33 32 30 29 30 29 28 23 20 17 13 11 8 6 5 4 4 2 359
329 335 338 346 358 359 360 358 1 4 2 359 359 1 3 5 4 5 8 10 12 13 12 15 19 20 20 17 16 17 16 15 12 10 8 5 2 2 2 1 358 355 354 353
312 315 317 323 326 334 339 339 343 344 348 352 358 2 5 1 3 2 0 1 3 5 4 5 7 8 8 8 7 8 7 5 1 0 358 358 356 354 353 352 352 353 351 349
300 304 306 314 318 316 316 322 326 328 331 337 341 341 344 348 352 355 355 357 357 356 356 356 357 357 356 356 356 357 357 358 355 352 352 351 347 346 345 344 344 345 345 345
285 287 291 299 314 309 309 315 319 320 322 324 324 327 330 332 333 335 340 346 348 349 350 348 345 346 348 348 347 346 346 348 348 348 347 344 343 342 340 340 339 340 343 342
Height
10356 10349 10342 10335 10329 10324 10318 10313 10309 10305 10301 10301 10303 10307 10314 10321 10330 10340 10354 10370 10390 10405 10421 10437 10453 10465 10476 10485 10491 10498 10506 10513 10522 10533 10541 10551 10560 10567 10574 10579 10583 10587 10591 10595
10357 10351 10345 10339 10332 10326 10321 10316 10311 10307 10304 10303 10304 10306 10311 10318 10328 10338 10350 10362 10375 10390 10402 10419 10433 10445 10454 10460 10470 10478 10487 10493 10501 10510 10522 10530 10538 10545 10555 10562 10564 10567 10574 10577
10363 10357 10352 10344 10338 10332 10325 10320 10316 10312 10309 10306 10307 10309 10313 10320 10328 10337 10347 10358 10369 10383 10396 10408 10419 10426 10437 10445 10456 10461 10467 10474 10482 10492 10502 10509 10516 10522 10528 10535 10538 10544 10552 10557
10369 10364 10358 10352 10345 10340 10334 10328 10322 10318 10317 10315 10315 10316 10320 10324 10329 10336 10343 10351 10360 10367 10377 10387 10400 10414 10426 10435 10442 10451 10459 10466 10471 10474 10480 10486 10492 10500 10506 10510 10513 10518 10527 10533
10376 10371 10365 10360 10354 10349 10344 10340 10335 10329 10325 10323 10324 10325 10326 10329 10333 10339 10345 10352 10358 10366 10375 10383 10389 10396 10403 10409 10416 10424 10428 10430 10433 10437 10443 10451 10458 10468 10477 10486 10490 10496 10502 10508
10382 10377 10372 10368 10362 10358 10353 10350 10345 10342 10339 10336 10334 10332 10332 10336 10340 10344 10347 10353 10359 10364 10369 10375 10381 10386 10392 10398 10404 10407 10409 10412 10412 10416 10423 10428 10435 10442 10451 10459 10464 10470 10477 10484
10387 10383 10380 10376 10370 10365 10362 10359 10355 10353 10350 10348 10346 10346 10346 10347 10348 10349 10352 10354 10359 10364 10367 10371 10375 10378 10382 10386 10391 10393 10396 10397 10398 10401 10405 10410 10416 10420 10429 10436 10442 10450 10458 10462
10391 10388 10387 10383 10379 10376 10372 10368 10365 10363 10360 10358 10357 10357 10357 10357 10356 10357 10359 10360 10361 10361 10364 10367 10369 10372 10372 10374 10377 10379 10380 10382 10382 10381 10383 10386 10393 10400 10406 10412 10418 10422 10429 10435
10395 10394 10391 10387 10385 10382 10379 10376 10372 10370 10367 10365 10364 10364 10365 10365 10365 10365 10365 10365 10366 10365 10365 10365 10365 10367 10367 10367 10366 10365 10366 10366 10366 10365 10365 10366 10369 10375 10380 10386 10393 10397 10402 10407
10401 10397 10394 10391 10388 10385 10382 10379 10376 10373 10371 10369 10369 10369 10370 10370 10371 10371 10370 10369 10369 10368 10368 10368 10366 10365 10366 10366 10365 10361 10359 10357 10355 10355 10354 10356 10358 10360 10363 10366 10371 10377 10380 10386
10411 10406 10401 10398 10394 10392 10390 10386 10382 10378 10374 10372 10372 10372 10373 10374 10374 10373 10372 10370 10369 10368 10367 10365 10365 10365 10364 10363 10361 10357 10355 10353 10350 10348 10347 10347 10348 10349 10351 10354 10357 10361 10365 10369
10424 10419 10413 10409 10406 10402 10398 10395 10391 10387 10383 10379 10378 10378 10379 10379 10378 10376 10374 10372 10370 10367 10365 10364 10363 10362 10360 10357 10354 10351 10349 10346 10344 10343 10343 10342 10342 10343 10344 10346 10348 10351 10354 10356
10436 10432 10428 10422 10417 10413 10409 10407 10404 10400 10397 10393 10391 10389 10388 10386 10384 10381 10379 10377 10374 10370 10367 10364 10363 10361 10358 10355 10353 10351 10348 10346 10343 10342 10341 10339 10339 10340 10341 10342 10343 10344 10346 10347
10445 10440 10437 10431 10426 10423 10420 10418 10415 10411 10408 10405 10402 10400 10397 10395 10392 10389 10386 10382 10379 10376 10373 10370 10367 10363 10359 10355 10352 10349 10347 10344 10342 10340 10339 10338 10338 10338 10337 10337 10338 10339 10339 10339
10454 10449 10446 10442 10438 10435 10432 10428 10425 10421 10418 10414 10411 10407 10404 10401 10398 10395 10391 10387 10383 10379 10376 10372 10368 10365 10361 10358 10355 10352 10349 10347 10344 10342 10340 10338 10336 10334 10333 10332 10331 10330 10330 10330
10460 10457 10453 10450 10447 10444 10440 10437 10433 10430 10426 10422 10418 10415 10411 10407 10403 10400 10396 10392 10389 10386 10382 10378 10374 10369 10366 10362 10358 10354 10351 10348 10345 10341 10339 10337 10334 10333 10331 10329 10328 10327 10326 10324
10465 10461 10458 10455 10451 10448 10445 10441 10438 10434 10431 10428 10424 10420 10416 10411 10407 10403 10400 10396 10393 10389 10386 10382 10378 10374 10370 10366 10361 10358 10355 10351 10347 10343 10340 10336 10332 10329 10327 10324 10322 10320 10318 10314
10467 10464 10461 10458 10454 10450 10446 10442 10439 10435 10432 10428 10425 10421 10417 10413 10410 10406 10402 10398 10393 10390 10387 10383 10379 10375 10371 10368 10364 10360 10356 10353 10349 10345 10340 10335 10332 10330 10328 10323 10318 10315 10312 10308
10467 10464 10461 10458 10455 10451 10447 10443 10440 10436 10433 10429 10425 10421 10416 10412 10408 10404 10400 10397 10393 10389 10385 10381 10377 10374 10370 10367 10363 10359 10354 10350 10346 10342 10338 10335 10332 10330 10325 10322 10318 10314 10310 10304
10467 10463 10461 10458 10454 10450 10447 10444 10440 10436 10432 10428 10424 10420 10416 10411 10407 10403 10399 10395 10391 10387 10383 10379 10374 10370 10367 10364 10361 10357 10352 10347 10344 10339 10335 10331 10328 10324 10320 10315 10310 10305 10299 10293
10466 10463 10459 10456 10454 10451 10447 10444 10440 10436 10432 10428 10424 10420 10416 10412 10407 10403 10398 10394 10389 10385 10381 10376 10372 10367 10364 10360 10357 10354 10349 10345 10341 10336 10331 10327 10324 10319 10314 10309 10303 10298 10292 10284
10464 10461 10458 10455 10452 10449 10446 10443 10439 10436 10433 10429 10425 10421 10417 10412 10407 10403 10399 10394 10389 10384 10380 10375 10370 10365 10362 10358 10354 10349 10345 10340 10336 10331 10326 10322 10317 10313 10308 10303 10298 10291 10284 10276
10460 10458 10455 10452 10449 10447 10443 10440 10437 10434 10430 10427 10424 10420 10416 10412 10407 10402 10398 10393 10388 10384 10381 10376 10371 10366 10361 10357 10352 10345 10340 10335 10332 10328 10323 10319 10314 10309 10304 10297 10290 10283 10276 10268
10455 10453 10451 10448 10446 10443 10440 10437 10435 10432 10429 10425 10421 10418 10414 10411 10406 10402 10398 10393 10388 10383 10379 10374 10368 10363 10358 10354 10349 10343 10338 10334 10330 10325 10319 10314 10308 10302 10295 10289 10282 10275 10267 10259
10450 10448 10445 10444 10441 10438 10436 10434 10431 10428 10426 10423 10419 10415 10411 10407 10404 10400 10395 10390 10385 10380 10376 10370 10364 10359 10354 10350 10345 10340 10334 10329 10324 10318 10313 10307 10300 10293 10287 10280 10273 10266 10258 10250
10442 10441 10439 10437 10435 10433 10430 10428 10425 10422 10419 10417 10414 10411 10408 10404 10400 10395 10391 10386 10381 10375 10370 10365 10360 10355 10351 10346 10341 10335 10329 10324 10318 10312 10305 10299 10293 10286 10278 10271 10264 10256 10248 10239
10433 10432 10431 10429 10428 10426 10423 10421 10418 10416 10413 10409 10407 10405 10401 10397 10393 10388 10384 10379 10374 10370 10366 10362 10357 10353 10347 10341 10335 10329 10323 10317 10311 10305 10298 10291 10284 10277 10269 10260 10252 10243 10235 10226